Flag for South Africa Weather past 2 weeks in Vereeniging, South Africa

Now
37 °F

Chilly.


Feels Like: 32 °F
Forecast: 23 / 59 °F
Wind: 7 mph from Southwest

Location: Vereeniging

Current Time: Aug 29, 2014 at 10:45:23 PM

Latest Report: Aug 29, 2014 at 9:00 PM


Visibility: N/A

Pressure: 30.36 "Hg

Humidity: 41%

Dew point: 16 °F

Location of VereenigingLocation

Historic Weather in Vereeniging — Graph

°F

Vereeniging temperature yesterday

Maximum temperature yesterday: 73 °F (at 1:00 PM)
Minimum temperature yesterday: 45 °F (at 11:00 PM)
Average temperature yesterday: 59 °F

Past Weeks' High & Low Weather Summary

 TemperatureHumidityPressure
High73 °F (Aug 20, 2:00 PM)94% (Aug 16, 10:00 PM)30.60 "Hg (Aug 16, 10:00 PM)
Low27 °F (Aug 23, 6:00 AM)5% (Aug 26, 4:00 PM)29.95 "Hg (Aug 28, 2:00 PM)
Average51 °F42%30.27 "Hg
* Reported Aug 14 8:00 PM — Aug 29 8:00 PM, Vereeniging, Weather by CustomWeather, © 2014

Note: Actual official high and low records may vary slightly from our data, if they occured in-between our weather recording intervals... More about our weather records

Advertising

Vereeniging weather history for previous 24 hours

 ConditionsComfort  
Time TempWeatherWind HumidityBarometerVisibility
8:00 PM
Aug 29
39 °FChilly.12 mph39%30.33 "HgN/A
7:00 PM41 °FQuite cool.10 mph33%30.33 "HgN/A
6:00 PM43 °FQuite cool.14 mph24%30.30 "HgN/A
5:00 PM46 °FCool.15 mph21%30.27 "HgN/A
4:00 PM48 °FCool.18 mph20%30.24 "HgN/A
3:00 PM48 °FCool.20 mph18%30.21 "HgN/A
2:00 PM48 °FCool.18 mph20%30.24 "HgN/A
1:00 PM45 °FQuite cool.17 mph27%30.27 "HgN/A
12:00 PM43 °FQuite cool.16 mph29%30.27 "HgN/A
11:00 AM39 °FChilly.16 mph33%30.27 "HgN/A
10:00 AM37 °FChilly.16 mph38%30.27 "HgN/A
9:00 AM32 °FChilly.15 mph60%30.27 "HgN/A
8:00 AM32 °FChilly.17 mph60%30.24 "HgN/A
7:00 AM32 °FChilly.13 mph69%30.21 "HgN/A
6:00 AM32 °FChilly.12 mph69%30.18 "HgN/A
5:00 AM32 °FChilly.15 mph75%30.15 "HgN/A
4:00 AM34 °FChilly.21 mph60%30.15 "HgN/A
3:00 AM37 °FChilly.8 mph48%30.12 "HgN/A
1:00 AM41 °FQuite cool.7 mph45%30.15 "HgN/A
12:00 AM41 °FQuite cool.7 mph45%30.12 "HgN/A
11:00 PM
Aug 28
45 °FQuite cool.13 mph39%30.12 "HgN/A
10:00 PM48 °FCool.7 mph43%30.09 "HgN/A
Weather by CustomWeather, © 2014

See weather overviewHow to use our weather pages